Arctic Village, AK

3:51 PM AKDT on July 24, 2016 (GMT -0800)
Arctic Village

Weather History for PARC - October, 2013

Change the Weather History Date:

Wednesday, October 9, 2013

  Actual Average Record
Temperature  
Mean Temperature 19 °F -  
Max Temperature 26 °F 31 °F 39 °F (2003)
Min Temperature 12 °F 13 °F -8 °F (1988)
Degree Days  
Heating Degree Days 46    
Moisture  
Dew Point 17 °F    
Average Humidity 90    
Maximum Humidity 100    
Minimum Humidity 73    
Precipitation  
Precipitation 0.00 in - - ()
Sea Level Pressure  
Sea Level Pressure 29.13 in    
Wind  
Wind Speed 2 mph (NNE)    
Max Wind Speed 7 mph    
Max Gust Speed -    
Visibility 10 miles    
Events      
Averages and records for this station are not official NWS values.
T = Trace of Precipitation, MM = Missing Value Source: NWS Daily Summary

Daily Weather History Graph

Daily Weather History Graph

Search for Another Location

Airport or City:

Trip Planner

Search our weather history database for the weather conditions in past years. The results will help you decide how hot, cold, wet, or windy it might be!

Date:

Astronomy

Oct. 09, 2013 Rise Set
Actual Time 8:26 AM AKDT 6:31 PM AKDT
Civil Twilight 7:29 AM AKDT 7:27 PM AKDT
Nautical Twilight 6:24 AM AKDT 8:31 PM AKDT
Astronomical Twilight 5:15 AM AKDT 9:40 PM AKDT
Moon 3:59 PM AKDT (10/9) 7:47 PM AKDT (10/9)
Length of Visible Light 11h 57m
Length of Day
10h 05m
Waxing Crescent, 27% of the Moon is Illuminated
Oct 9
Waxing Crescent
Oct 11
First Quarter
Oct 18
Full
Oct 26
Last Quarter
Nov 3
New

Hourly Weather History & Observations

Time (AKDT) Temp. Windchill Dew Point Humidity Pressure Visibility Wind Dir Wind Speed Gust Speed Precip Events Conditions
12:16 AM 21.2 °F 12.6 °F 19.4 °F 93% 29.03 in 6.0 mi East 6.9 mph - N/A   Overcast
12:36 AM 21.2 °F 13.6 °F 19.4 °F 93% 29.02 in 5.0 mi East 5.8 mph - N/A   Overcast
12:56 AM 21.2 °F 13.6 °F 19.4 °F 93% 29.02 in 7.0 mi ENE 5.8 mph - N/A   Scattered Clouds
1:16 AM 19.4 °F 14.3 °F 19.4 °F 100% 29.02 in 10.0 mi East 3.5 mph - N/A   Clear
1:36 AM 19.4 °F - 19.4 °F 100% 29.01 in 8.0 mi Calm Calm - N/A   Mostly Cloudy
1:56 AM 19.4 °F - 17.6 °F 93% 29.01 in 5.0 mi Calm Calm - N/A   Overcast
2:16 AM 19.4 °F - 17.6 °F 93% 29.01 in 5.0 mi Calm Calm - N/A   Overcast
2:36 AM 19.4 °F 14.3 °F 17.6 °F 93% 29.00 in 7.0 mi NNW 3.5 mph - N/A   Scattered Clouds
2:56 AM 19.4 °F - 17.6 °F 93% 28.99 in 10.0 mi Calm Calm - N/A   Clear
3:16 AM 19.4 °F - 19.4 °F 100% 28.98 in 10.0 mi Calm Calm - N/A   Partly Cloudy
3:36 AM 17.6 °F 12.3 °F 17.6 °F 100% 28.98 in 10.0 mi SSW 3.5 mph - N/A   Partly Cloudy
3:56 AM 19.4 °F - 17.6 °F 93% 28.98 in 10.0 mi Calm Calm - N/A   Partly Cloudy
4:16 AM 17.6 °F - 12.2 °F 79% 28.98 in 10.0 mi Calm Calm - N/A   Clear
4:36 AM 17.6 °F 12.3 °F 12.2 °F 79% 28.98 in 10.0 mi NW 3.5 mph - N/A   Clear
4:56 AM 17.6 °F 9.3 °F 10.4 °F 73% 28.98 in 10.0 mi NNW 5.8 mph - N/A   Clear
5:16 AM 17.6 °F 12.3 °F 12.2 °F 79% 28.98 in 10.0 mi NW 3.5 mph - N/A   Clear
5:36 AM 15.8 °F - 12.2 °F 86% 28.99 in 10.0 mi Calm Calm - N/A   Clear
5:56 AM 15.8 °F - 12.2 °F 86% 28.99 in 10.0 mi Calm Calm - N/A   Scattered Clouds
6:16 AM 15.8 °F - 12.2 °F 86% 28.99 in 10.0 mi Calm Calm - N/A   Overcast
6:36 AM 15.8 °F - 10.4 °F 79% 28.99 in 10.0 mi Calm Calm - N/A   Overcast
6:56 AM 12.2 °F - 10.4 °F 92% 28.99 in 10.0 mi Calm Calm - N/A   Overcast
7:16 AM 15.8 °F 10.2 °F 12.2 °F 86% 29.00 in 10.0 mi SSW 3.5 mph - N/A   Overcast
7:36 AM 15.8 °F - 10.4 °F 79% 29.00 in 10.0 mi Calm Calm - N/A   Overcast
7:56 AM 15.8 °F 10.2 °F 12.2 °F 86% 29.01 in 10.0 mi West 3.5 mph - N/A   Mostly Cloudy
8:16 AM 15.8 °F - 15.8 °F 100% 29.01 in 10.0 mi Calm Calm - N/A   Scattered Clouds
8:36 AM 15.8 °F - 15.8 °F 100% 29.02 in 10.0 mi Calm Calm - N/A   Partly Cloudy
8:56 AM 17.6 °F - 17.6 °F 100% 29.03 in 10.0 mi Calm Calm - N/A   Mostly Cloudy
9:16 AM 17.6 °F - 15.8 °F 93% 29.03 in 10.0 mi Calm Calm - N/A   Scattered Clouds
9:36 AM 17.6 °F - 15.8 °F 93% 29.04 in 10.0 mi Calm Calm - N/A   Scattered Clouds
9:56 AM 17.6 °F - 17.6 °F 100% 29.04 in 10.0 mi Calm Calm - N/A   Scattered Clouds
10:16 AM 17.6 °F - 15.8 °F 93% 29.05 in 10.0 mi Calm Calm - N/A   Scattered Clouds
10:36 AM 19.4 °F - 17.6 °F 93% 29.06 in 10.0 mi Calm Calm - N/A   Partly Cloudy
10:56 AM 19.4 °F - 19.4 °F 100% 29.07 in 10.0 mi Calm Calm - N/A   Clear
11:16 AM 19.4 °F - 17.6 °F 93% 29.08 in 10.0 mi Calm Calm - N/A   Partly Cloudy
11:36 AM 21.2 °F - 19.4 °F 93% 29.09 in 10.0 mi Calm Calm - N/A   Partly Cloudy
11:56 AM 21.2 °F - 19.4 °F 93% 29.09 in 10.0 mi Calm Calm - N/A   Partly Cloudy
12:16 PM 21.2 °F - 19.4 °F 93% 29.10 in 10.0 mi Calm Calm - N/A   Clear
12:36 PM 21.2 °F - 19.4 °F 93% 29.11 in 10.0 mi Calm Calm - N/A   Partly Cloudy
12:56 PM 24.8 °F - 21.2 °F 86% 29.12 in 10.0 mi Calm Calm - N/A   Partly Cloudy
1:16 PM 24.8 °F - 21.2 °F 86% 29.13 in 10.0 mi Calm Calm - N/A   Clear
1:36 PM 24.8 °F - 21.2 °F 86% 29.14 in 10.0 mi Calm Calm - N/A   Clear
1:56 PM 24.8 °F - 21.2 °F 86% 29.15 in 10.0 mi Calm Calm - N/A   Scattered Clouds
2:16 PM 24.8 °F - 21.2 °F 86% 29.15 in 10.0 mi Calm Calm - N/A   Scattered Clouds
2:36 PM 24.8 °F - 21.2 °F 86% 29.16 in 10.0 mi Calm Calm - N/A   Scattered Clouds
2:56 PM 24.8 °F - 21.2 °F 86% 29.17 in 10.0 mi Calm Calm - N/A   Partly Cloudy
3:16 PM 24.8 °F - 19.4 °F 80% 29.17 in 10.0 mi Calm Calm - N/A   Clear
3:36 PM 24.8 °F 20.5 °F 19.4 °F 80% 29.18 in 10.0 mi NE 3.5 mph - N/A   Clear
3:56 PM 24.8 °F - 19.4 °F 80% 29.19 in 10.0 mi Calm Calm - N/A   Clear
4:16 PM 24.8 °F - 19.4 °F 80% 29.20 in 10.0 mi Calm Calm - N/A   Clear
4:36 PM 24.8 °F - 21.2 °F 86% 29.21 in 10.0 mi Calm Calm - N/A   Clear
4:56 PM 24.8 °F - 21.2 °F 86% 29.21 in 10.0 mi Calm Calm - N/A   Clear
5:16 PM 26.6 °F - 21.2 °F 80% 29.22 in 10.0 mi Calm Calm - N/A   Clear
5:36 PM 26.6 °F - 21.2 °F 80% 29.23 in 10.0 mi Calm Calm - N/A   Clear
5:56 PM 26.6 °F 22.6 °F 21.2 °F 80% 29.23 in 10.0 mi NE 3.5 mph - N/A   Clear
6:16 PM 24.8 °F 20.5 °F 21.2 °F 86% 29.24 in 10.0 mi North 3.5 mph - N/A   Clear
6:36 PM 24.8 °F - 19.4 °F 80% 29.25 in 10.0 mi Calm Calm - N/A   Clear
6:56 PM 23.0 °F 18.4 °F 19.4 °F 86% 29.26 in 10.0 mi North 3.5 mph - N/A   Clear
7:16 PM 21.2 °F - 19.4 °F 93% 29.26 in 10.0 mi Calm Calm - N/A   Clear
7:36 PM 21.2 °F - 17.6 °F 86% 29.27 in 10.0 mi Calm Calm - N/A   Clear
7:56 PM 19.4 °F - 17.6 °F 93% 29.28 in 10.0 mi Calm Calm - N/A   Clear
8:16 PM 19.4 °F - 17.6 °F 93% 29.29 in 9.0 mi Calm Calm - N/A   Clear
8:36 PM 19.4 °F - 17.6 °F 93% 29.30 in 10.0 mi Calm Calm - N/A   Clear
8:56 PM 19.4 °F - 19.4 °F 100% 29.31 in 10.0 mi Calm Calm - N/A   Partly Cloudy
9:16 PM 19.4 °F - 17.6 °F 93% 29.31 in 10.0 mi Calm Calm - N/A   Mostly Cloudy
9:36 PM 17.6 °F - 15.8 °F 93% 29.32 in 10.0 mi Calm Calm - N/A   Scattered Clouds
9:56 PM 17.6 °F - 15.8 °F 93% 29.32 in 7.0 mi Calm Calm - N/A   Clear
10:16 PM 17.6 °F - 14.0 °F 86% 29.33 in 10.0 mi Calm Calm - N/A   Clear
10:36 PM 17.6 °F - 15.8 °F 93% 29.34 in 10.0 mi Calm Calm - N/A   Mostly Cloudy
10:56 PM 15.8 °F - 15.8 °F 100% 29.35 in 10.0 mi Calm Calm - N/A   Overcast
11:16 PM 15.8 °F - 12.2 °F 86% 29.36 in 10.0 mi Calm Calm - N/A   Overcast
11:36 PM 17.6 °F - 17.6 °F 100% 29.36 in 7.0 mi Calm Calm - N/A   Overcast
11:56 PM 17.6 °F 10.7 °F 17.6 °F 100% 29.37 in 9.0 mi NNE 4.6 mph - N/A   Overcast